Погода в Бани

Доминиканская Республика     18°16′46″N   70°20′07″W
темп.,
°C
ветер,
м/с
пор.,
м/с
влажн.,
%
обл.,
%
осадки,
мм/ч
давл.,
гПа
погр.,
м
18 мая, вт
вт1823:00+24св12835 0.0 1017255
02:00+23св238572 0.0 1016269
05:00+22ссв2387100 0.0 101582
08:00+26св3475100 0.1 1016503
11:00+29вюв546092 0.1 10171117
14:00+30юв655389 0.1 10151018
17:00+28юв446362 0.0 1014860
20:00+25вюв338066 0.0 1015255
19 мая, ср
ср1923:00+24св22857 0.0 1016257
02:00+23ссв228616 0.0 1015244
05:00+23ссв338516 0.0 101591
08:00+26всв337594 0.1 1016559
11:00+29вюв4461100 0.0 10161059
14:00+29юв54608 0.0 10151034
17:00+28юв556618 0.0 1013848
20:00+25в23865 0.8 1015116
20 мая, чт
чт2023:00+23св358715 2.0 1016145
02:00+23св468475 2.4 1015210
05:00+23св4583100 0.0 1014155
08:00+26св4570100 0.0 1016381
11:00+29в665689 0.0 10161087
14:00+29вюв665844 0.0 1015958
17:00+28вюв566897 0.0 1013853
20:00+25всв4582100 0.3 1015329
21 мая, пт
пт2123:00+24св478293 0.3 1016328
02:00+23св468470 0.3 1015170
05:00+22св468572 0.0 1015161
08:00+26св577288 0.0 1016558
11:00+30в665270 0.0 10161291
14:00+30вюв665798 0.0 10151060
17:00+29вюв665948 0.0 1014872
20:00+25всв697559 0.6 1016453
22 мая, сб
сб2223:00+23св81280100 0.1 1018583
02:00+23св61077100 0.1 1016457
05:00+23св5877100 0.0 1015371
08:00+25св6965100 0.0 1017786
11:00+28всв7861100 0.0 10171178
14:00+30в7753100 0.1 10151333
17:00+28в7762100 0.1 1014841
20:00+25всв587724 0.2 1016481